Weather in Sorsogon City

Philippines     12°59′01″N   124°00′40″E
temp.,
°C
wind,
m/s
gust,
m/s
humid.,
%
clouds,
%
prec.,
mm/h
press.,
hPa
HPBL,
m
23 april, fri
fri2323:00+26sw51083100 0.0 1007543
02:00+26sw488893 0.0 1006443
05:00+25wsw479069 0.0 1006410
08:00+27sw577925 0.1 1008775
11:00+29sw577286 0.1 1008814
14:00+30wsw466898 0.3 1006677
17:00+28wsw3675100 0.1 1006430
20:00+26wsw3787100 0.1 1008269
24 april, sat
sat2423:00+25sw3588100 0.0 1008159
02:00+25wsw3589100 0.1 1007224
05:00+25wsw378997 0.3 1008283
08:00+26wsw3583100 1.8 1010412
11:00+30wsw356596 1.1 1009764
14:00+30wsw3564100 1.6 1007824
17:00+28wsw237468 0.0 1007401
20:00+26nnw128262 0.1 101084
25 april, sun
sun2523:00+25sw118542 0.4 101038
02:00+25w128529 1.1 100986
05:00+24wnw11855 0.1 1009132
08:00+27nnw117875 0.1 1011357
11:00+29n236620 0.1 1010854
14:00+28ne227232 0.7 1009318
17:00+26ne338243 0.6 1009395
20:00+24ene24895 1.0 1011243
26 april, mon
mon2623:00+24ne238823 0.1 1012279
02:00+24ne248834 0.5 1010254
05:00+24ene23883 0.2 1010219
08:00+26ne347711 0.1 1012700
11:00+26ne447930 0.6 1012746
14:00+26ne457640 0.9 1010840
17:00+25ene458234 0.2 1010644
20:00+25ene478364 0.3 1012556
27 april, tue
tue2723:00+24ne468384 0.1 1013550
02:00+24ne468541 0.2 1011509
05:00+24ene468461 0.3 1012555
08:00+25ene467920 0.4 1013842
11:00+26ene457130 0.2 1013993
14:00+27ne4567100 0.3 1011953
17:00+25ene4569100 0.0 1011688
20:00+24ene468070 0.0 1013450